| time (UTC) | temp C | wind direction | speed KPH | gust KPH | rain 1hr cm | rain 24hr cm | rain mn cm | humidity % | barometer mb |
| 20260504003307 | 16 | 131 | 0.0 | 1.6 | 0.00 | 0.00 | 0.00 | 51 | 1017.2 |
| 20260504002803 | 16 | 136 | 0.0 | 4.8 | 0.00 | 0.00 | 0.00 | 50 | 1016.9 |
| 20260504002300 | 16 | 121 | 0.0 | 1.6 | 0.00 | 0.00 | 0.00 | 49 | 1017.0 |
| 20260504001758 | 16 | 225 | 3.2 | 4.8 | 0.00 | 0.00 | 0.00 | 48 | 1017.0 |
| 20260504001255 | 16 | 135 | 3.2 | 8.0 | 0.00 | 0.00 | 0.00 | 47 | 1016.8 |
| 20260504000752 | 17 | 144 | 3.2 | 8.0 | 0.00 | 0.00 | 0.00 | 47 | 1016.8 |
| 20260504000248 | 17 | 175 | 6.4 | 11.3 | 0.00 | 0.00 | 0.00 | 46 | 1017.2 |
| 20260503235746 | 17 | 145 | 4.8 | 8.0 | 0.00 | 0.00 | 0.00 | 46 | 1017.1 |
| 20260503235243 | 17 | 166 | 8.0 | 9.7 | 0.00 | 0.00 | 0.00 | 46 | 1017.2 |
| 20260503234741 | 17 | 128 | 1.6 | 11.3 | 0.00 | 0.00 | 0.00 | 45 | 1016.9 |
| 20260503234239 | 17 | 161 | 0.0 | 3.2 | 0.00 | 0.00 | 0.00 | 45 | 1017.2 |
| 20260503233736 | 17 | 159 | 4.8 | 9.7 | 0.00 | 0.00 | 0.00 | 44 | 1017.2 |
| 20260503233232 | 17 | 252 | 1.6 | 8.0 | 0.00 | 0.00 | 0.00 | 44 | 1017.1 |
| 20260503232729 | 17 | 82 | 3.2 | 11.3 | 0.00 | 0.00 | 0.00 | 44 | 1017.0 |
| 20260503232226 | 18 | 149 | 6.4 | 8.0 | 0.00 | 0.00 | 0.00 | 44 | 1016.9 |
| 20260503231724 | 18 | 102 | 8.0 | 9.7 | 0.00 | 0.00 | 0.00 | 43 | 1017.2 |
| 20260503231220 | 18 | 196 | 8.0 | 11.3 | 0.00 | 0.00 | 0.00 | 43 | 1017.1 |
| 20260503230717 | 18 | 139 | 0.0 | 9.7 | 0.00 | 0.00 | 0.00 | 43 | 1017.2 |
| 20260503230214 | 18 | 131 | 4.8 | 8.0 | 0.00 | 0.00 | 0.00 | 42 | 1017.2 |
| 20260503225711 | 18 | 171 | 3.2 | 11.3 | 0.00 | 0.00 | 0.00 | 42 | 1017.3 |
| 20260503225206 | 18 | 160 | 8.0 | 11.3 | 0.00 | 0.00 | 0.00 | 43 | 1017.3 |
| 20260503224703 | 18 | 288 | 4.8 | 11.3 | 0.00 | 0.00 | 0.00 | 40 | 1017.5 |
| 20260503224201 | 18 | 144 | 6.4 | 12.9 | 0.00 | 0.00 | 0.00 | 39 | 1017.6 |
| 20260503223658 | 18 | 164 | 1.6 | 4.8 | 0.00 | 0.00 | 0.00 | 40 | 1017.8 |
| 20260503223155 | 18 | 169 | 3.2 | 12.9 | 0.00 | 0.00 | 0.00 | 40 | 1017.8 |
| 20260503222652 | 18 | 230 | 6.4 | 16.1 | 0.00 | 0.00 | 0.00 | 40 | 1017.8 |
| 20260503222150 | 18 | 146 | 8.0 | 12.9 | 0.00 | 0.00 | 0.00 | 40 | 1017.9 |
| 20260503221648 | 18 | 147 | 4.8 | 8.0 | 0.00 | 0.00 | 0.00 | 39 | 1018.0 |
| 20260503221145 | 18 | 152 | 3.2 | 8.0 | 0.00 | 0.00 | 0.00 | 38 | 1018.0 |
| 20260503220642 | 18 | 227 | 4.8 | 11.3 | 0.00 | 0.00 | 0.00 | 38 | 1018.2 |
| 20260503220138 | 18 | 124 | 1.6 | 12.9 | 0.00 | 0.00 | 0.00 | 39 | 1018.3 |
| 20260503215636 | 18 | 252 | 3.2 | 11.3 | 0.00 | 0.00 | 0.00 | 39 | 1018.4 |
| 20260503215132 | 18 | 129 | 1.6 | 12.9 | 0.00 | 0.00 | 0.00 | 40 | 1018.2 |
| 20260503214631 | 18 | 158 | 3.2 | 9.7 | 0.00 | 0.00 | 0.00 | 38 | 1018.4 |
| 20260503214126 | 19 | 336 | 3.2 | 8.0 | 0.00 | 0.00 | 0.00 | 36 | 1018.7 |
| 20260503213620 | 20 | 160 | 3.2 | 4.8 | 0.00 | 0.00 | 0.00 | 38 | 1018.8 |
| 20260503213116 | 19 | 152 | 1.6 | 8.0 | 0.00 | 0.00 | 0.00 | 37 | 1018.9 |
| 20260503212614 | 19 | 135 | 0.0 | 17.7 | 0.00 | 0.00 | 0.00 | 37 | 1018.9 |
| 20260503212111 | 18 | 238 | 6.4 | 22.5 | 0.00 | 0.00 | 0.00 | 36 | 1019.1 |
| 20260503211609 | 18 | 212 | 3.2 | 11.3 | 0.00 | 0.00 | 0.00 | 37 | 1019.3 |
| 20260503211104 | 19 | 130 | 8.0 | 17.7 | 0.00 | 0.00 | 0.00 | 36 | 1019.4 |
| 20260503210601 | 20 | 174 | 4.8 | 9.7 | 0.00 | 0.00 | 0.00 | 35 | 1019.1 |
| 20260503210056 | 19 | 79 | 4.8 | 17.7 | 0.00 | 0.00 | 0.00 | 36 | 1018.9 |
| 20260503205553 | 18 | 125 | 3.2 | 14.5 | 0.00 | 0.00 | 0.00 | 37 | 1018.9 |
| 20260503205049 | 19 | 130 | 4.8 | 9.7 | 0.00 | 0.00 | 0.00 | 36 | 1018.8 |
| 20260503204547 | 18 | 193 | 6.4 | 9.7 | 0.00 | 0.00 | 0.00 | 36 | 1019.0 |
| 20260503204044 | 18 | 263 | 6.4 | 16.1 | 0.00 | 0.00 | 0.00 | 36 | 1019.4 |
| 20260503203541 | 18 | 155 | 8.0 | 11.3 | 0.00 | 0.00 | 0.00 | 35 | 1019.4 |
| 20260503203038 | 18 | 236 | 3.2 | 9.7 | 0.00 | 0.00 | 0.00 | 35 | 1019.6 |
| 20260503202536 | 18 | 137 | 6.4 | 12.9 | 0.00 | 0.00 | 0.00 | 35 | 1019.6 |
| 20260503202033 | 19 | 188 | 8.0 | 16.1 | 0.00 | 0.00 | 0.00 | 34 | 1019.6 |
| 20260503201531 | 19 | 170 | 3.2 | 11.3 | 0.00 | 0.00 | 0.00 | 34 | 1019.6 |
| 20260503201028 | 18 | 175 | 0.0 | 11.3 | 0.00 | 0.00 | 0.00 | 37 | 1019.8 |
| 20260503200524 | 18 | 158 | 0.0 | 9.7 | 0.00 | 0.00 | 0.00 | 37 | 1019.8 |
| 20260503200021 | 18 | 272 | 12.9 | 16.1 | 0.00 | 0.00 | 0.00 | 34 | 1020.1 |
| 20260503195518 | 18 | 147 | 3.2 | 11.3 | 0.00 | 0.00 | 0.00 | 37 | 1020.2 |
| 20260503195015 | 19 | 152 | 3.2 | 17.7 | 0.00 | 0.00 | 0.00 | 36 | 1020.0 |
| 20260503194513 | 18 | 174 | 1.6 | 8.0 | 0.00 | 0.00 | 0.00 | 39 | 1020.0 |
| 20260503194012 | 18 | 123 | 4.8 | 11.3 | 0.00 | 0.00 | 0.00 | 36 | 1020.3 |
| 20260503193509 | 18 | 132 | 3.2 | 14.5 | 0.00 | 0.00 | 0.00 | 38 | 1020.6 |
| 20260503193004 | 18 | 265 | 4.8 | 12.9 | 0.00 | 0.00 | 0.00 | 33 | 1021.0 |
| 20260503192500 | 18 | 152 | 3.2 | 20.9 | 0.00 | 0.00 | 0.00 | 36 | 1020.9 |
| 20260503191956 | 18 | 275 | 3.2 | 8.0 | 0.00 | 0.00 | 0.00 | 37 | 1020.9 |
| 20260503191454 | 18 | 156 | 1.6 | 8.0 | 0.00 | 0.00 | 0.00 | 37 | 1021.1 |
| 20260503190950 | 18 | 227 | 8.0 | 16.1 | 0.00 | 0.00 | 0.00 | 34 | 1021.2 |
| 20260503190447 | 18 | 294 | 3.2 | 4.8 | 0.00 | 0.00 | 0.00 | 38 | 1021.3 |
| 20260503185944 | 18 | 151 | 6.4 | 12.9 | 0.00 | 0.00 | 0.00 | 35 | 1021.2 |
| 20260503185441 | 18 | 283 | 12.9 | 17.7 | 0.00 | 0.00 | 0.00 | 36 | 1021.4 |
| 20260503184940 | 18 | 158 | 8.0 | 11.3 | 0.00 | 0.00 | 0.00 | 34 | 1021.5 |
| 20260503184437 | 17 | 209 | 1.6 | 9.7 | 0.00 | 0.00 | 0.00 | 38 | 1021.7 |
| 20260503183933 | 17 | 169 | 4.8 | 17.7 | 0.00 | 0.00 | 0.00 | 36 | 1021.6 |
| 20260503183430 | 18 | 99 | 6.4 | 9.7 | 0.00 | 0.00 | 0.00 | 33 | 1021.9 |
| 20260503182927 | 18 | 150 | 6.4 | 14.5 | 0.00 | 0.00 | 0.00 | 37 | 1021.9 |
| 20260503182426 | 18 | 169 | 4.8 | 11.3 | 0.00 | 0.00 | 0.00 | 38 | 1021.9 |
| 20260503181923 | 18 | 155 | 6.4 | 9.7 | 0.00 | 0.00 | 0.00 | 37 | 1022.1 |
| 20260503181420 | 18 | 123 | 1.6 | 9.7 | 0.00 | 0.00 | 0.00 | 40 | 1022.1 |
| 20260503180916 | 17 | 141 | 3.2 | 9.7 | 0.00 | 0.00 | 0.00 | 38 | 1022.3 |
| 20260503180414 | 17 | 252 | 9.7 | 16.1 | 0.00 | 0.00 | 0.00 | 37 | 1022.3 |
| 20260503175910 | 17 | 132 | 8.0 | 14.5 | 0.00 | 0.00 | 0.00 | 38 | 1022.2 |
| 20260503175409 | 17 | 144 | 8.0 | 14.5 | 0.00 | 0.00 | 0.00 | 37 | 1022.4 |
| 20260503174904 | 17 | 251 | 3.2 | 9.7 | 0.00 | 0.00 | 0.00 | 40 | 1022.2 |
| 20260503174402 | 17 | 264 | 6.4 | 12.9 | 0.00 | 0.00 | 0.00 | 37 | 1022.6 |
| 20260503173857 | 17 | 203 | 6.4 | 11.3 | 0.00 | 0.00 | 0.00 | 39 | 1022.6 |
| 20260503173353 | 16 | 122 | 6.4 | 11.3 | 0.00 | 0.00 | 0.00 | 39 | 1022.7 |
| 20260503172850 | 16 | 145 | 9.7 | 17.7 | 0.00 | 0.00 | 0.00 | 38 | 1022.8 |
| 20260503172348 | 16 | 118 | 4.8 | 17.7 | 0.00 | 0.00 | 0.00 | 39 | 1022.9 |
| 20260503171844 | 16 | 129 | 4.8 | 11.3 | 0.00 | 0.00 | 0.00 | 38 | 1023.1 |
| 20260503171341 | 16 | 76 | 4.8 | 9.7 | 0.00 | 0.00 | 0.00 | 40 | 1022.8 |
| 20260503170838 | 16 | 167 | 6.4 | 16.1 | 0.00 | 0.00 | 0.00 | 40 | 1023.2 |
| 20260503170334 | 16 | 123 | 3.2 | 12.9 | 0.00 | 0.00 | 0.00 | 41 | 1023.1 |
| 20260503150727 | 15 | 146 | 4.8 | 9.7 | 0.00 | 0.00 | 0.00 | 51 | 1024.5 |
| 20260503150223 | 14 | 187 | 3.2 | 11.3 | 0.00 | 0.00 | 0.00 | 50 | 1024.6 |
| 20260503140147 | 11 | 86 | 1.6 | 11.3 | 0.00 | 0.00 | 0.00 | 57 | 1024.5 |
| 20260503131117 | 8 | 125 | 1.6 | 3.2 | 0.00 | 0.00 | 0.00 | 72 | 1025.0 |
| 20260503130614 | 8 | 142 | 1.6 | 4.8 | 0.00 | 0.00 | 0.00 | 76 | 1024.9 |
| 20260503130112 | 7 | 139 | 1.6 | 4.8 | 0.00 | 0.00 | 0.00 | 78 | 1024.7 |
| 20260503110504 | 0 | 115 | 0.0 | 0.0 | 0.00 | 0.00 | 0.00 | 99 | 1024.0 |
| 20260503090350 | 0 | 115 | 0.0 | 0.0 | 0.00 | 0.00 | 0.00 | 99 | 1023.9 |
| 20260503081317 | 0 | 115 | 0.0 | 0.0 | 0.00 | 0.00 | 0.00 | 99 | 1023.3 |
| 20260503080814 | 0 | 115 | 0.0 | 0.0 | 0.00 | 0.00 | 0.00 | 99 | 1023.4 |
| 20260503080311 | 0 | 115 | 0.0 | 0.0 | 0.00 | 0.00 | 0.00 | 99 | 1023.4 |
| 20260503072748 | 0 | 115 | 0.0 | 0.0 | 0.00 | 0.00 | 0.00 | 99 | 1023.3 |
| 20260503072245 | 0 | 115 | 0.0 | 0.0 | 0.00 | 0.00 | 0.00 | 99 | 1023.5 |
| 20260503071741 | 0 | 115 | 0.0 | 0.0 | 0.00 | 0.00 | 0.00 | 99 | 1023.4 |
| 20260503071238 | 0 | 115 | 0.0 | 0.0 | 0.00 | 0.00 | 0.00 | 99 | 1023.3 |
| 20260503070734 | 0 | 115 | 0.0 | 0.0 | 0.00 | 0.00 | 0.00 | 99 | 1023.3 |
| 20260503070232 | 0 | 115 | 0.0 | 0.0 | 0.00 | 0.00 | 0.00 | 99 | 1023.4 |
| 20260503060157 | 1 | 115 | 0.0 | 0.0 | 0.00 | 0.00 | 0.00 | 99 | 1023.5 |
| 20260503054644 | 1 | 115 | 0.0 | 0.0 | 0.00 | 0.00 | 0.00 | 99 | 1023.5 |
| 20260503054141 | 1 | 115 | 0.0 | 0.0 | 0.00 | 0.00 | 0.00 | 99 | 1023.6 |
| 20260503053639 | 1 | 115 | 0.0 | 0.0 | 0.00 | 0.00 | 0.00 | 99 | 1023.6 |
| 20260503053138 | 1 | 115 | 0.0 | 0.0 | 0.00 | 0.00 | 0.00 | 99 | 1023.8 |
| 20260503052633 | 1 | 115 | 0.0 | 0.0 | 0.00 | 0.00 | 0.00 | 99 | 1023.8 |
| 20260503052130 | 1 | 115 | 0.0 | 0.0 | 0.00 | 0.00 | 0.00 | 99 | 1023.7 |
| 20260503051625 | 1 | 115 | 0.0 | 0.0 | 0.00 | 0.00 | 0.00 | 99 | 1023.7 |
| 20260503051123 | 1 | 115 | 0.0 | 0.0 | 0.00 | 0.00 | 0.00 | 98 | 1023.6 |
| 20260503050620 | 2 | 115 | 0.0 | 0.0 | 0.00 | 0.00 | 0.00 | 98 | 1023.6 |
| 20260503050116 | 2 | 115 | 0.0 | 0.0 | 0.00 | 0.00 | 0.00 | 98 | 1023.5 |
| 20260503045614 | 2 | 115 | 0.0 | 0.0 | 0.00 | 0.00 | 0.00 | 98 | 1023.4 |
| 20260503045111 | 2 | 115 | 0.0 | 0.0 | 0.00 | 0.00 | 0.00 | 98 | 1023.6 |
| 20260503044607 | 2 | 115 | 0.0 | 0.0 | 0.00 | 0.00 | 0.00 | 98 | 1023.6 |
| 20260503044105 | 2 | 111 | 0.0 | 0.0 | 0.00 | 0.00 | 0.00 | 98 | 1023.6 |
| 20260503043601 | 2 | 115 | 0.0 | 0.0 | 0.00 | 0.00 | 0.00 | 97 | 1023.4 |
| 20260503043058 | 2 | 115 | 0.0 | 0.0 | 0.00 | 0.00 | 0.00 | 97 | 1023.6 |
| 20260503042555 | 2 | 115 | 0.0 | 0.0 | 0.00 | 0.00 | 0.00 | 97 | 1023.5 |
| 20260503042051 | 2 | 115 | 0.0 | 0.0 | 0.00 | 0.00 | 0.00 | 97 | 1023.6 |
| 20260503041548 | 2 | 115 | 0.0 | 0.0 | 0.00 | 0.00 | 0.00 | 96 | 1023.4 |
| 20260503041046 | 2 | 115 | 0.0 | 0.0 | 0.00 | 0.00 | 0.00 | 96 | 1023.6 |
| 20260503040543 | 2 | 115 | 0.0 | 0.0 | 0.00 | 0.00 | 0.00 | 96 | 1023.7 |
| 20260503040040 | 2 | 115 | 0.0 | 0.0 | 0.00 | 0.00 | 0.00 | 96 | 1023.5 |
| 20260503035537 | 3 | 115 | 0.0 | 0.0 | 0.00 | 0.00 | 0.00 | 95 | 1023.5 |
| 20260503035034 | 3 | 115 | 0.0 | 0.0 | 0.00 | 0.00 | 0.00 | 95 | 1023.5 |
| 20260503034531 | 3 | 115 | 0.0 | 0.0 | 0.00 | 0.00 | 0.00 | 95 | 1023.4 |
| 20260503034029 | 3 | 115 | 0.0 | 0.0 | 0.00 | 0.00 | 0.00 | 94 | 1023.4 |
| 20260503033526 | 3 | 116 | 0.0 | 0.0 | 0.00 | 0.00 | 0.00 | 94 | 1023.6 |
| 20260503033023 | 3 | 116 | 0.0 | 0.0 | 0.00 | 0.00 | 0.00 | 94 | 1023.4 |
| 20260503032522 | 3 | 115 | 0.0 | 0.0 | 0.00 | 0.00 | 0.00 | 93 | 1023.4 |
| 20260503032019 | 3 | 116 | 0.0 | 0.0 | 0.00 | 0.00 | 0.00 | 92 | 1023.4 |
| 20260503031517 | 3 | 114 | 0.0 | 0.0 | 0.00 | 0.00 | 0.00 | 92 | 1023.5 |
| 20260503031014 | 3 | 112 | 0.0 | 0.0 | 0.00 | 0.00 | 0.00 | 91 | 1023.4 |
| 20260503030510 | 4 | 114 | 0.0 | 0.0 | 0.00 | 0.00 | 0.00 | 90 | 1023.1 |
| 20260503030007 | 4 | 114 | 0.0 | 0.0 | 0.00 | 0.00 | 0.00 | 90 | 1023.3 |
| 20260503025504 | 4 | 114 | 0.0 | 0.0 | 0.00 | 0.00 | 0.00 | 89 | 1023.5 |
| 20260503025001 | 5 | 113 | 0.0 | 0.0 | 0.00 | 0.00 | 0.00 | 88 | 1023.2 |
| 20260503024457 | 5 | 114 | 0.0 | 0.0 | 0.00 | 0.00 | 0.00 | 87 | 1023.2 |
| 20260503023955 | 5 | 114 | 0.0 | 0.0 | 0.00 | 0.00 | 0.00 | 85 | 1023.4 |
| 20260503023452 | 5 | 114 | 0.0 | 0.0 | 0.00 | 0.00 | 0.00 | 83 | 1023.2 |
| 20260503022949 | 5 | 114 | 0.0 | 0.0 | 0.00 | 0.00 | 0.00 | 83 | 1023.2 |
| 20260503022444 | 5 | 112 | 0.0 | 0.0 | 0.00 | 0.00 | 0.00 | 82 | 1022.9 |
| 20260503021940 | 6 | 112 | 0.0 | 0.0 | 0.00 | 0.00 | 0.00 | 81 | 1022.9 |
| 20260503021436 | 6 | 112 | 0.0 | 0.0 | 0.00 | 0.00 | 0.00 | 80 | 1022.8 |
| 20260503020934 | 6 | 112 | 0.0 | 0.0 | 0.00 | 0.00 | 0.00 | 78 | 1022.9 |
| 20260503020432 | 6 | 110 | 0.0 | 0.0 | 0.00 | 0.00 | 0.00 | 78 | 1022.7 |
| 20260503015927 | 6 | 112 | 0.0 | 0.0 | 0.00 | 0.00 | 0.00 | 78 | 1022.5 |
| 20260503015424 | 7 | 112 | 0.0 | 0.0 | 0.00 | 0.00 | 0.00 | 76 | 1022.4 |
| 20260503014920 | 7 | 112 | 0.0 | 0.0 | 0.00 | 0.00 | 0.00 | 75 | 1022.4 |
| 20260503014418 | 7 | 112 | 0.0 | 0.0 | 0.00 | 0.00 | 0.00 | 76 | 1022.3 |
| 20260503013916 | 7 | 101 | 0.0 | 0.0 | 0.00 | 0.00 | 0.00 | 76 | 1022.3 |
| 20260503013412 | 8 | 114 | 0.0 | 0.0 | 0.00 | 0.00 | 0.00 | 74 | 1022.2 |
| 20260503012909 | 8 | 111 | 0.0 | 0.0 | 0.00 | 0.00 | 0.00 | 74 | 1022.2 |
| 20260503012408 | 8 | 108 | 0.0 | 0.0 | 0.00 | 0.00 | 0.00 | 71 | 1022.1 |
| 20260503011903 | 8 | 110 | 0.0 | 0.0 | 0.00 | 0.00 | 0.00 | 72 | 1021.8 |
| 20260503011400 | 8 | 111 | 0.0 | 0.0 | 0.00 | 0.00 | 0.00 | 72 | 1021.8 |
| 20260503010857 | 8 | 114 | 0.0 | 1.6 | 0.00 | 0.00 | 0.00 | 73 | 1021.8 |
| 20260503010354 | 8 | 78 | 1.6 | 1.6 | 0.00 | 0.00 | 0.00 | 72 | 1021.8 |
| 20260503005851 | 8 | 115 | 0.0 | 1.6 | 0.00 | 0.00 | 0.00 | 74 | 1021.6 |
| 20260503005349 | 9 | 182 | 0.0 | 1.6 | 0.00 | 0.00 | 0.00 | 74 | 1021.7 |
| 20260503004844 | 9 | 153 | 0.0 | 0.0 | 0.00 | 0.00 | 0.00 | 71 | 1021.6 |
| 20260503004342 | 10 | 113 | 0.0 | 1.6 | 0.00 | 0.00 | 0.00 | 71 | 1021.6 |
| 20260503003839 | 10 | 115 | 0.0 | 0.0 | 0.00 | 0.00 | 0.00 | 67 | 1021.5 |